Weather History for Lafayette, LA

Change the Weather History Date:

Sunday, August 11, 2013

  Actual Average Record
Temperature  
Mean Temperature 82 °F 84 °F  
Max Temperature 89 °F 93 °F 101 °F (1925)
Min Temperature 75 °F 75 °F 58 °F (1923)
Cooling Degree Days 17 19  
Month to date cooling degree days 229 209  
Year to date cooling degree days 1769 1893  
Since 1 June cooling degree days 1305 1279  
Growing Degree Days 32 (Base 50)    
Moisture  
Dew Point 75 °F    
Average Humidity 79    
Maximum Humidity 94    
Minimum Humidity 63    
Precipitation  
Precipitation 0.14 in 0.15 in 3.75 in (1898)
Month to date precipitation 1.28 1.67  
Year to date precipitation 40.40 37.67  
Sea Level Pressure  
Sea Level Pressure 30.07 in    
Wind  
Wind Speed 3 mph (SE)    
Max Wind Speed 14 mph    
Max Gust Speed 16 mph    
Visibility 10 miles    
Events Rain , Thunderstorm    
T = Trace of Precipitation, MM = Missing Value Source: NWS Daily Summary

Daily Weather History Graph

Daily Weather History Graph

Search for Another Location

Airport:

Trip Planner

Search our weather history database for the weather conditions in past years. The results will help you decide how hot, cold, wet, or windy it might be!

Date:

Astronomy

Aug. 11, 2013 Rise Set
Actual Time 6:32 AM CDT 7:52 PM CDT
Civil Twilight 6:07 AM CDT 8:18 PM CDT
Nautical Twilight 5:37 AM CDT 8:48 PM CDT
Astronomical Twilight 5:05 AM CDT 9:19 PM CDT
Moon 10:55 AM CDT (8/11) 10:35 PM CDT (8/11)
Length of Visible Light 14h 10m
Length of Day
13h 20m
Waxing Crescent, 22% of the Moon is Illuminated
Aug 11
Waxing Crescent
Aug 14
First Quarter
Aug 20
Full
Aug 28
Last Quarter
Sep 5
New

Hourly Weather History & Observations

Time (CDT) Temp. Heat Index Dew Point Humidity Pressure Visibility Wind Dir Wind Speed Gust Speed Precip Events Conditions
12:53 AM 77.0 °F - 73.9 °F 90% 30.05 in 10.0 mi Calm Calm - N/A   Clear
1:53 AM 77.0 °F - 73.9 °F 90% 30.04 in 10.0 mi Calm Calm - N/A   Clear
2:53 AM 75.9 °F - 73.9 °F 94% 30.04 in 10.0 mi Calm Calm - N/A   Clear
3:53 AM 75.9 °F - 73.9 °F 94% 30.04 in 10.0 mi Calm Calm - N/A   Clear
4:53 AM 75.9 °F - 73.9 °F 94% 30.05 in 10.0 mi Calm Calm - N/A   Clear
5:53 AM 75.0 °F - 73.0 °F 94% 30.06 in 10.0 mi Calm Calm - N/A   Clear
6:53 AM 75.9 °F - 73.9 °F 94% 30.08 in 10.0 mi Calm Calm - N/A   Clear
7:53 AM 78.1 °F - 75.0 °F 90% 30.08 in 10.0 mi ENE 4.6 mph - N/A   Clear
8:53 AM 82.0 °F 89.4 °F 75.9 °F 82% 30.09 in 10.0 mi Calm Calm - N/A   Clear
9:53 AM 86.0 °F 96.0 °F 75.9 °F 72% 30.09 in 10.0 mi ENE 3.5 mph - N/A   Scattered Clouds
10:53 AM 82.9 °F 88.8 °F 73.0 °F 72% 30.10 in 10.0 mi SE 8.1 mph - N/A   Scattered Clouds
11:53 AM 84.0 °F 91.2 °F 73.9 °F 72% 30.09 in 10.0 mi South 8.1 mph - 0.07 in   Mostly Cloudy
12:45 PM 82.4 °F 88.2 °F 73.4 °F 74% 30.11 in 10.0 mi SSE 10.4 mph - 0.01 in Thunderstorm Thunderstorm
12:53 PM 80.1 °F 84.5 °F 73.9 °F 81% 30.11 in 4.0 mi Variable 3.5 mph - 0.07 in Rain , Thunderstorm Heavy Thunderstorms and Rain
1:41 PM 87.8 °F 97.6 °F 75.2 °F 66% 30.09 in 10.0 mi NNE 3.5 mph - 0.00 in   Partly Cloudy
1:53 PM 87.1 °F 97.3 °F 75.9 °F 69% 30.09 in 10.0 mi ENE 4.6 mph - 0.00 in   Partly Cloudy
2:53 PM 88.0 °F 96.5 °F 73.9 °F 63% 30.06 in 10.0 mi SSE 8.1 mph - N/A   Partly Cloudy
3:53 PM 86.0 °F 95.1 °F 75.0 °F 70% 30.05 in 10.0 mi SE 4.6 mph - N/A   Clear
4:53 PM 84.9 °F 94.1 °F 75.9 °F 74% 30.06 in 10.0 mi Variable 3.5 mph - N/A   Partly Cloudy
5:53 PM 84.9 °F 94.1 °F 75.9 °F 74% 30.05 in 10.0 mi South 5.8 mph - N/A   Clear
6:53 PM 84.9 °F 91.4 °F 73.0 °F 67% 30.05 in 10.0 mi South 6.9 mph - N/A   Clear
7:53 PM 82.9 °F 91.8 °F 77.0 °F 82% 30.06 in 10.0 mi Calm Calm - N/A   Clear
8:53 PM 81.0 °F 87.9 °F 77.0 °F 88% 30.08 in 10.0 mi Calm Calm - N/A   Clear
9:53 PM 80.1 °F 85.4 °F 75.9 °F 87% 30.09 in 10.0 mi Calm Calm - N/A   Clear
10:53 PM 79.0 °F - 75.9 °F 90% 30.09 in 10.0 mi Calm Calm - N/A   Clear
11:53 PM 79.0 °F - 75.9 °F 90% 30.09 in 10.0 mi Calm Calm - N/A   Clear